TimeCDT,TemperatureF,Dew PointF,Humidity,Sea Level PressureIn,VisibilityMPH,Wind Direction,Wind SpeedMPH,Gust SpeedMPH,PrecipitationIn,Events,Conditions,WindDirDegrees,DateUTC
12:15 AM,69.8,53.6,56,29.70,10.0,South,12.7,18.4,N/A,,Clear,170,2013-04-30 05:15:00
12:35 AM,69.8,53.6,56,29.70,10.0,South,11.5,-,N/A,,Clear,170,2013-04-30 05:35:00
12:55 AM,69.8,53.6,56,29.70,10.0,South,11.5,17.3,N/A,,Clear,180,2013-04-30 05:55:00
1:35 AM,68.0,53.6,60,29.71,10.0,SSE,11.5,-,N/A,,Clear,160,2013-04-30 06:35:00
1:55 AM,68.0,53.6,60,29.71,10.0,South,10.4,-,N/A,,Clear,170,2013-04-30 06:55:00
2:15 AM,68.0,51.8,56,29.72,10.0,South,10.4,-,N/A,,Clear,180,2013-04-30 07:15:00
2:35 AM,68.0,51.8,56,29.73,10.0,South,10.4,-,N/A,,Clear,180,2013-04-30 07:35:00
2:55 AM,66.2,51.8,60,29.73,10.0,South,6.9,-,N/A,,Clear,170,2013-04-30 07:55:00
3:15 AM,64.4,51.8,64,29.73,10.0,South,8.1,-,N/A,,Clear,170,2013-04-30 08:15:00
3:35 AM,64.4,51.8,64,29.73,10.0,South,8.1,-,N/A,,Clear,170,2013-04-30 08:35:00
3:55 AM,64.4,53.6,68,29.74,10.0,South,9.2,-,N/A,,Clear,170,2013-04-30 08:55:00
4:15 AM,64.4,53.6,68,29.74,10.0,South,8.1,-,N/A,,Clear,170,2013-04-30 09:15:00
4:35 AM,64.4,53.6,68,29.74,10.0,South,9.2,-,N/A,,Clear,180,2013-04-30 09:35:00
4:55 AM,64.4,53.6,68,29.75,10.0,South,9.2,-,N/A,,Clear,180,2013-04-30 09:55:00
5:15 AM,64.4,53.6,68,29.75,10.0,South,8.1,-,N/A,,Clear,180,2013-04-30 10:15:00
5:35 AM,62.6,53.6,72,29.76,10.0,SSE,6.9,-,N/A,,Clear,160,2013-04-30 10:35:00
5:55 AM,60.8,53.6,77,29.77,10.0,SSE,8.1,-,N/A,,Clear,160,2013-04-30 10:55:00
6:15 AM,60.8,53.6,77,29.77,10.0,SSE,8.1,-,N/A,,Clear,160,2013-04-30 11:15:00
6:35 AM,60.8,53.6,77,29.77,10.0,South,9.2,-,N/A,,Clear,170,2013-04-30 11:35:00
6:55 AM,60.8,53.6,77,29.78,10.0,South,8.1,-,N/A,,Clear,170,2013-04-30 11:55:00
7:15 AM,62.6,53.6,72,29.79,10.0,South,8.1,-,N/A,,Clear,170,2013-04-30 12:15:00
7:35 AM,62.6,53.6,72,29.80,10.0,South,11.5,-,N/A,,Clear,180,2013-04-30 12:35:00
7:55 AM,64.4,53.6,68,29.79,10.0,South,9.2,-,N/A,,Clear,190,2013-04-30 12:55:00
8:15 AM,66.2,55.4,68,29.79,10.0,South,15.0,-,N/A,,Clear,190,2013-04-30 13:15:00
8:35 AM,68.0,55.4,64,29.80,10.0,South,12.7,20.7,N/A,,Clear,190,2013-04-30 13:35:00
8:55 AM,69.8,55.4,60,29.80,10.0,South,15.0,20.7,N/A,,Clear,190,2013-04-30 13:55:00
9:15 AM,69.8,55.4,60,29.80,10.0,SSW,18.4,21.9,N/A,,Clear,200,2013-04-30 14:15:00
9:35 AM,71.6,53.6,53,29.80,10.0,South,13.8,20.7,N/A,,Clear,190,2013-04-30 14:35:00
9:55 AM,71.6,53.6,53,29.80,10.0,South,18.4,25.3,N/A,,Clear,190,2013-04-30 14:55:00
10:15 AM,73.4,53.6,50,29.80,10.0,South,17.3,25.3,N/A,,Clear,190,2013-04-30 15:15:00
10:35 AM,73.4,53.6,50,29.80,10.0,South,13.8,25.3,N/A,,Clear,190,2013-04-30 15:35:00
10:55 AM,73.4,53.6,50,29.80,10.0,South,16.1,28.8,N/A,,Clear,180,2013-04-30 15:55:00
11:15 AM,77.0,53.6,44,29.80,10.0,South,16.1,20.7,N/A,,Clear,180,2013-04-30 16:15:00
11:35 AM,77.0,53.6,44,29.80,10.0,South,13.8,21.9,N/A,,Clear,170,2013-04-30 16:35:00
11:55 AM,77.0,53.6,44,29.80,10.0,South,15.0,18.4,N/A,,Clear,170,2013-04-30 16:55:00
12:15 PM,77.0,51.8,41,29.79,10.0,South,13.8,25.3,N/A,,Clear,180,2013-04-30 17:15:00
12:35 PM,78.8,51.8,39,29.79,10.0,South,13.8,23.0,N/A,,Clear,170,2013-04-30 17:35:00
1:15 PM,78.8,50.0,36,29.78,10.0,South,12.7,23.0,N/A,,Clear,170,2013-04-30 18:15:00
1:35 PM,78.8,50.0,36,29.78,10.0,South,17.3,23.0,N/A,,Clear,180,2013-04-30 18:35:00
1:55 PM,78.8,46.4,32,29.78,10.0,South,17.3,24.2,N/A,,Clear,190,2013-04-30 18:55:00
2:15 PM,78.8,46.4,32,29.78,10.0,South,16.1,25.3,N/A,,Clear,180,2013-04-30 19:15:00
2:35 PM,80.6,48.2,32,29.79,10.0,South,13.8,20.7,N/A,,Clear,180,2013-04-30 19:35:00
2:55 PM,80.6,50.0,34,29.79,10.0,South,15.0,19.6,N/A,,Clear,190,2013-04-30 19:55:00
3:35 PM,80.6,46.4,30,29.77,10.0,South,17.3,24.2,N/A,,Clear,180,2013-04-30 20:35:00
3:55 PM,80.6,50.0,34,29.77,10.0,South,13.8,21.9,N/A,,Clear,180,2013-04-30 20:55:00
4:15 PM,80.6,50.0,34,29.78,10.0,South,11.5,17.3,N/A,,Clear,170,2013-04-30 21:15:00
4:35 PM,80.6,50.0,34,29.78,10.0,SSE,12.7,-,N/A,,Clear,160,2013-04-30 21:35:00
4:55 PM,80.6,50.0,34,29.79,10.0,SSE,15.0,18.4,N/A,,Clear,160,2013-04-30 21:55:00
5:15 PM,80.6,48.2,32,29.79,10.0,South,13.8,-,N/A,,Clear,180,2013-04-30 22:15:00
5:35 PM,80.6,46.4,30,29.79,10.0,South,13.8,18.4,N/A,,Clear,180,2013-04-30 22:35:00
5:55 PM,78.8,48.2,34,29.79,10.0,South,9.2,-,N/A,,Clear,180,2013-04-30 22:55:00
6:35 PM,78.8,48.2,34,29.79,10.0,South,8.1,-,N/A,,Clear,170,2013-04-30 23:35:00
6:55 PM,77.0,50.0,39,29.78,10.0,South,5.8,-,N/A,,Clear,170,2013-04-30 23:55:00
7:15 PM,77.0,50.0,39,29.79,10.0,South,4.6,-,N/A,,Clear,170,2013-05-01 00:15:00
7:35 PM,75.2,50.0,41,29.79,10.0,South,4.6,-,N/A,,Clear,170,2013-05-01 00:35:00
7:55 PM,73.4,50.0,44,29.80,10.0,SSE,5.8,-,N/A,,Clear,160,2013-05-01 00:55:00
8:15 PM,71.6,48.2,43,29.80,10.0,SSE,4.6,-,N/A,,Clear,150,2013-05-01 01:15:00
8:35 PM,71.6,48.2,43,29.80,10.0,SE,4.6,-,N/A,,Clear,140,2013-05-01 01:35:00
8:55 PM,71.6,50.0,46,29.81,10.0,SSE,4.6,-,N/A,,Clear,150,2013-05-01 01:55:00
9:15 PM,69.8,50.0,49,29.82,10.0,SE,5.8,-,N/A,,Clear,140,2013-05-01 02:15:00
9:35 PM,68.0,50.0,52,29.83,10.0,SE,5.8,-,N/A,,Clear,140,2013-05-01 02:35:00
9:55 PM,68.0,48.2,49,29.84,10.0,SE,4.6,-,N/A,,Clear,140,2013-05-01 02:55:00
10:15 PM,68.0,48.2,49,29.84,10.0,SE,5.8,-,N/A,,Clear,140,2013-05-01 03:15:00
10:35 PM,68.0,46.4,46,29.85,10.0,SE,4.6,-,N/A,,Clear,140,2013-05-01 03:35:00
10:55 PM,66.2,46.4,49,29.85,10.0,SE,6.9,-,N/A,,Clear,140,2013-05-01 03:55:00
11:15 PM,64.4,46.4,52,29.86,10.0,SE,5.8,-,N/A,,Clear,140,2013-05-01 04:15:00
11:35 PM,62.6,46.4,55,29.86,10.0,SE,5.8,-,N/A,,Clear,140,2013-05-01 04:35:00
11:55 PM,62.6,46.4,55,29.86,10.0,SE,6.9,-,N/A,,Clear,140,2013-05-01 04:55:00